Stations météo

réclame
Mon MeteoGroup
Clermont-Ferrand, France (7460): Température de l'air & dewpoint: 11.07.2019 10:00:00 - 17.07.2019 10:00:00 (CEST)Clermont-Ferrand, France (7460): Température de l'air 5cm: 11.07.2019 10:00:00 - 17.07.2019 10:00:00 (CEST)Clermont-Ferrand, France (7460): Température de l'air -20cm & Température de l'air -100cm: 11.07.2019 10:00:00 - 17.07.2019 10:00:00 (CEST)Clermont-Ferrand, France (7460): Vitesse du vent & gusts: 11.07.2019 10:00:00 - 17.07.2019 10:00:00 (CEST)Clermont-Ferrand, France (7460): Direction du vent: 11.07.2019 10:00:00 - 17.07.2019 10:00:00 (CEST)Clermont-Ferrand, France (7460): reduced air pressure: 11.07.2019 10:00:00 - 17.07.2019 10:00:00 (CEST)Clermont-Ferrand, France (7460): visibility: 11.07.2019 10:00:00 - 17.07.2019 10:00:00 (CEST)Clermont-Ferrand, France (7460): Ensoleillement: 11.07.2019 10:00:00 - 17.07.2019 10:00:00 (CEST)Clermont-Ferrand, France (7460): Quantités de précipitations: 11.07.2019 10:00:00 - 17.07.2019 10:00:00 (CEST)
Date & Time tt [°C] td [°C] tt 5cm [°C] tt -20cm [°C] tt -100cm [°C] ff [km/h] ff [knt] fx [km/h] fx [knt] dd ppp [hPa] vv [km] sd [min] rr [mm]
17.07.2019 10:00:00 22,1 7,9 23,8 21,8 18,8 5 3 11 6 E 1015,2 30 60 0,0
17.07.2019 09:00:00 19,3 7,7 18,8 21,8 18,8 4 2 8 4 NE 1015,6 12 58 0,0
17.07.2019 08:00:00 16,9 7,8 14,2 21,8 18,8 4 2 6 3 NNE 1016,0 31 39 0,0
17.07.2019 07:00:00 14,1 7,6 8,8 21,8 18,8 3 2 6 3 ESE 1016,2 28 21 0,0
17.07.2019 06:00:00 13,5 7,0 8,8 21,9 18,8 5 3 7 4 NNE 1016,1 29 0 0,0
17.07.2019 05:00:00 14,7 7,3 9,3 21,9 18,8 0 0 9 5 N 1015,8 33 0 0,0
17.07.2019 04:00:00 14,2 7,0 9,2 21,8 18,8 7 4 10 6 ESE 1016,0 38 0 0,0
17.07.2019 03:00:00 17,4 6,6 10,9 21,8 18,8 9 5 13 7 WNW 1015,9 30 0 0,0
17.07.2019 02:00:00 19,9 5,9 11,7 21,8 18,8 6 4 11 6 WNW 1016,0 29 0 0,0
17.07.2019 01:00:00 19,3 6,4 11,7 21,8 18,8 5 3 7 4 W 1016,2 29 0 0,0
17.07.2019 00:00:00 20,9 6,4 13,7 21,7 18,8 2 1 9 5 WSW 1015,8 32 0 0,0
16.07.2019 23:00:00 21,6 6,7 14,5 21,7 18,8 4 2 9 5 NW 1015,4 35 0 0,0
16.07.2019 22:00:00 22,2 7,2 18,0 21,6 18,8 5 3 15 8 N 1014,9 16 8 0,0
16.07.2019 21:00:00 25,3 6,9 25,1 21,6 18,8 9 5 18 10 NNE 1014,2 41 60 0,0
16.07.2019 20:00:00 27,3 6,1 29,7 21,5 18,8 10 5 25 13 NNE 1013,9 44 58 0,0
16.07.2019 19:00:00 28,6 4,8 31,4 21,5 18,8 7 4 17 9 NE 1013,7 38 55 0,0
16.07.2019 18:00:00 28,8 5,0 29,3 21,5 18,8 9 5 21 11 NNW 1013,8 15 33 0,0
16.07.2019 17:00:00 28,6 4,8 35,3 21,5 18,8 10 6 20 11 NNW 1014,3 35 60 0,0
16.07.2019 16:00:00 28,4 4,6 32,6 21,5 18,8 8 4 21 12 N 1014,7 18 60 0,0
16.07.2019 15:00:00 26,7 5,0 33,0 21,5 18,8 5 3 19 10 NNW 1015,1 38 57 0,0
16.07.2019 14:00:00 26,3 5,8 31,9 21,6 18,8 6 4 17 9 NNW 1015,6 27 60 0,0
16.07.2019 13:00:00 24,8 7,4 31,0 21,6 18,8 7 4 24 13 NNE 1016,1 41 60 0,0
16.07.2019 12:00:00 23,3 9,7 30,2 21,7 18,8 9 5 17 9 NNE 1016,8 17 60 0,0
16.07.2019 11:00:00 21,8 10,3 28,0 21,7 18,8 5 3 18 10 N 1017,3 32 60 0,0
16.07.2019 10:00:00 20,1 9,6 23,5 21,8 18,8 6 3 14 8 ENE 1017,8 20 60 0,0
16.07.2019 09:00:00 18,5 9,0 20,9 21,8 18,8 8 4 14 8 E 1018,1 22 60 0,0
16.07.2019 08:00:00 17,5 9,6 13,8 21,8 18,8 3 2 6 3 NE 1018,0 24 60 0,0
16.07.2019 07:00:00 12,9 9,0 7,0 21,9 18,8 3 2 6 3 ENE 1018,2 18 22 0,0
16.07.2019 06:00:00 12,4 8,1 7,1 21,9 18,8 2 1 6 3 E 1018,2 26 0 0,0
16.07.2019 05:00:00 14,1 8,7 8,1 21,9 18,8 0 0 4 2 N 1017,8 29 0 0,0
16.07.2019 04:00:00 13,4 8,0 8,6 21,9 18,8 0 0 6 3 N 1017,8 32 0 0,0
16.07.2019 03:00:00 15,5 7,5 9,8 21,9 18,8 2 1 9 5 S 1017,6 34 0 0,0
16.07.2019 02:00:00 17,7 8,3 12,9 21,9 18,8 4 2 7 4 SSE 1017,5 37 0 0,0
16.07.2019 01:00:00 18,7 8,4 14,7 21,9 18,8 2 1 6 3 SE 1017,4 39 0 0,0
16.07.2019 00:00:00 19,1 8,1 15,0 21,9 18,8 4 2 14 7 ENE 1016,9 40 0 0,0
15.07.2019 23:00:00 19,8 7,8 16,4 21,8 18,8 6 3 13 7 NW 1016,7 43 0 0,0
15.07.2019 22:00:00 21,0 8,3 18,0 21,8 18,8 7 4 16 9 N 1016,0 30 8 0,0
15.07.2019 21:00:00 23,1 7,6 23,4 21,7 18,8 11 6 34 18 N 1015,2 29 60 0,0
15.07.2019 20:00:00 24,4 7,1 25,3 21,7 18,8 14 8 33 18 N 1014,7 20 58 0,0
15.07.2019 19:00:00 24,0 7,2 25,4 21,7 18,8 14 7 30 16 N 1014,6 21 39 0,0
15.07.2019 18:00:00 24,7 7,3 26,2 21,7 18,8 16 9 36 20 N 1014,5 33 37 0,0
15.07.2019 17:00:00 23,9 7,5 25,3 21,7 18,8 17 9 41 22 N 1014,8 17 31 0,0
15.07.2019 16:00:00 25,1 7,7 29,7 21,7 18,8 17 9 41 22 NNE 1014,6 20 57 0,0
15.07.2019 15:00:00 24,4 7,5 25,9 21,7 18,8 19 10 41 22 NNE 1014,7 20 54 0,0
15.07.2019 14:00:00 23,6 7,2 26,1 21,8 18,8 18 10 41 22 N 1014,9 23 58 0,0
15.07.2019 13:00:00 21,8 8,7 26,0 21,8 18,8 16 8 38 21 N 1015,3 21 53 0,0
15.07.2019 12:00:00 20,8 8,4 22,8 21,8 18,8 16 9 35 19 N 1015,8 19 50 0,0
15.07.2019 11:00:00 19,2 9,1 23,0 21,9 18,8 16 8 33 18 NNE 1015,8 17 45 0,0
15.07.2019 10:00:00 18,2 10,1 22,1 21,9 18,8 13 7 27 15 N 1015,8 16 60 0,0
15.07.2019 09:00:00 17,0 9,4 17,3 22,0 18,8 14 8 25 13 N 1016,2 18 42 0,0
15.07.2019 08:00:00 16,0 9,0 15,0 22,0 18,8 7 4 14 7 N 1016,3 15 60 0,0
15.07.2019 07:00:00 14,9 8,8 14,2 22,0 18,8 8 5 19 10 NNW 1016,0 12 23 0,0
15.07.2019 06:00:00 15,0 8,9 14,2 22,1 18,8 9 5 18 10 NNW 1016,0 19 0 0,0
15.07.2019 05:00:00 15,6 9,0 15,3 22,1 18,8 8 5 23 12 N 1016,0 43 0 0,0
15.07.2019 04:00:00 16,2 8,9 15,0 22,1 18,8 9 5 22 12 N 1015,9 44 0 0,0
15.07.2019 03:00:00 16,2 8,9 15,3 22,1 18,8 10 6 26 14 N 1015,9 45 0 0,0
15.07.2019 02:00:00 17,3 9,0 16,5 22,1 18,8 16 9 30 16 NNW 1015,9 41 0 0,0
15.07.2019 01:00:00 18,3 9,1 17,3 22,1 18,8 16 9 32 17 N 1015,7 40 0 0,0
15.07.2019 00:00:00 19,2 8,8 18,3 22,0 18,8 13 7 38 21 N 1015,3 50 0 0,0
14.07.2019 23:00:00 20,2 8,8 19,2 22,0 18,8 16 9 33 18 N 1014,9 50 0 0,0
14.07.2019 22:00:00 20,7 8,7 19,7 22,0 18,8 18 10 38 20 N 1014,2 59 9 0,0
14.07.2019 21:00:00 22,1 8,6 21,7 21,9 18,8 16 8 38 21 N 1013,4 27 28 0,0
14.07.2019 20:00:00 24,0 7,6 27,4 21,9 18,8 18 10 39 21 N 1012,9 28 58 0,0
14.07.2019 19:00:00 25,6 6,2 30,2 21,9 18,8 19 11 42 23 N 1012,4 30 60 0,0
14.07.2019 18:00:00 25,9 4,9 26,5 21,9 18,8 21 11 48 26 N 1012,3 29 48 0,0
14.07.2019 17:00:00 26,1 7,2 26,8 21,9 18,8 18 10 43 23 N 1012,4 29 47 0,0
14.07.2019 16:00:00 25,6 7,2 27,8 21,9 18,8 23 12 42 23 N 1012,6 22 46 0,0
14.07.2019 15:00:00 25,5 7,6 26,1 21,9 18,7 18 10 39 21 NNE 1013,0 26 46 0,0
14.07.2019 14:00:00 24,8 9,5 25,5 22,0 18,8 16 9 39 21 N 1013,4 20 37 0,0
14.07.2019 13:00:00 24,3 9,5 28,6 22,0 18,7 16 8 34 18 N 1013,8 27 60 0,0
14.07.2019 12:00:00 23,0 10,4 27,5 22,1 18,7 18 10 30 16 N 1014,4 20 55 0,0
14.07.2019 11:00:00 21,8 10,6 27,1 22,1 18,8 16 9 29 16 N 1014,9 18 60 0,0
14.07.2019 10:00:00 20,1 10,2 24,5 22,1 18,7 11 6 24 13 N 1015,7 7 60 0,0
14.07.2019 09:00:00 18,9 10,2 21,7 22,2 18,8 10 6 19 11 NNE 1015,8 24 60 0,0
14.07.2019 08:00:00 17,6 10,0 15,5 22,2 18,7 3 2 8 4 E 1015,8 39 60 0,0
14.07.2019 07:00:00 14,6 9,2 10,3 22,2 18,7 4 2 9 5 ESE 1016,6 38 24 0,0
14.07.2019 06:00:00 15,6 8,8 12,1 22,2 18,7 4 2 8 4 SSE 1016,4 34 0 0,0
14.07.2019 05:00:00 16,2 8,7 13,0 22,2 18,8 3 2 14 8 ENE 1016,2 37 0 0,0
14.07.2019 04:00:00 17,9 9,0 15,5 22,2 18,7 11 6 15 8 N 1016,2 37 0 0,0
14.07.2019 03:00:00 17,6 8,7 15,0 22,2 18,8 2 1 8 5 S 1016,7 39 0 0,0
14.07.2019 02:00:00 18,4 8,4 15,9 22,2 18,8 4 2 8 4 N 1016,7 34 0 0,0
14.07.2019 01:00:00 18,9 8,2 12,5 22,2 18,7 4 2 9 5 N 1016,5 38 0 0,0
14.07.2019 00:00:00 18,8 7,9 13,4 22,2 18,8 2 1 8 5 NNE 1016,6 18 0 0,0
13.07.2019 23:00:00 20,0 8,0 16,9 22,1 18,7 6 3 13 7 N 1016,3 36 0 0,0
13.07.2019 22:00:00 21,2 8,1 19,1 22,1 18,7 9 5 26 14 N 1016,1 45 10 0,0
13.07.2019 21:00:00 23,6 7,2 23,7 22,0 18,7 13 7 29 16 NNE 1015,5 49 60 0,0
13.07.2019 20:00:00 25,5 6,6 28,0 21,9 18,7 14 7 30 16 NNE 1015,2 44 60 0,0
13.07.2019 19:00:00 26,5 5,4 31,2 21,9 18,7 15 8 34 18 NNE 1015,2 28 60 0,0
13.07.2019 18:00:00 27,0 5,9 31,9 21,9 18,8 13 7 43 23 NNE 1015,3 43 60 0,0
13.07.2019 17:00:00 26,8 6,2 33,5 21,9 18,7 14 7 33 18 NE 1015,6 41 60 0,0
13.07.2019 16:00:00 27,1 6,5 33,0 21,9 18,7 14 8 30 16 N 1016,1 38 60 0,0
13.07.2019 15:00:00 26,4 6,4 30,3 21,9 18,7 14 7 31 17 NE 1016,5 35 57 0,0
13.07.2019 14:00:00 26,2 8,2 27,7 21,9 18,7 13 7 32 18 NNE 1017,0 27 49 0,0
13.07.2019 13:00:00 25,5 9,3 25,7 22,0 18,8 15 8 32 18 NNE 1017,3 31 43 0,0
13.07.2019 12:00:00 24,4 11,4 26,2 22,0 18,7 14 7 34 19 NNE 1017,5 19 48 0,0
13.07.2019 11:00:00 23,2 11,3 29,0 22,1 18,8 10 5 20 11 NE 1017,6 21 60 0,0
13.07.2019 10:00:00 22,2 12,7 26,3 22,1 18,8 10 6 20 11 N 1018,0 20 60 0,0
13.07.2019 09:00:00 20,6 12,6 20,8 22,1 18,8 6 4 15 8 NNE 1018,0 21 46 0,0
13.07.2019 08:00:00 19,2 13,4 18,0 22,1 18,7 4 2 10 5 E 1018,1 32 20 0,0
13.07.2019 07:00:00 18,7 12,4 14,4 22,1 18,7 3 1 9 5 E 1017,7 40 0 0,0
13.07.2019 06:00:00 17,8 12,0 14,7 22,1 18,7 0 0 10 5 N 1017,4 32 0 0,0
13.07.2019 05:00:00 18,0 13,1 15,2 22,1 18,7 8 4 12 6 N 1017,4 42 0 0,0
13.07.2019 04:00:00 20,0 13,2 17,1 22,1 18,7 7 4 11 6 NW 1017,0 50 0 0,0
13.07.2019 03:00:00 20,4 14,3 18,7 22,1 18,7 3 1 9 5 WNW 1017,0 51 0 0,0
13.07.2019 02:00:00 20,8 14,4 19,1 22,1 18,8 3 2 14 8 NE 1016,9 49 0 0,0
13.07.2019 01:00:00 21,1 14,5 19,1 22,1 18,8 8 4 13 7 WNW 1017,1 48 0 0,0
13.07.2019 00:00:00 21,4 15,2 18,7 22,0 18,7 3 1 14 8 SSE 1016,8 51 0 0,0
12.07.2019 23:00:00 21,9 15,0 17,5 22,0 18,7 7 4 14 8 NW 1016,5 56 0 0,0
12.07.2019 22:00:00 22,8 14,9 19,5 21,9 18,7 8 5 19 11 NW 1015,7 14 2 0,0
12.07.2019 21:00:00 24,1 15,0 23,4 21,9 18,7 12 6 32 17 NNW 1015,2 51 44 0,0
12.07.2019 20:00:00 25,8 14,6 25,5 21,9 18,7 16 9 40 22 NW 1014,7 13 37 0,0
12.07.2019 19:00:00 26,8 14,5 27,7 21,8 18,7 16 9 40 21 WNW 1014,3 33 44 0,0
12.07.2019 18:00:00 28,0 14,3 27,7 21,8 18,7 22 12 38 20 W 1013,8 36 35 0,0
12.07.2019 17:00:00 27,3 13,3 29,2 21,8 18,7 18 10 38 20 NW 1013,7 33 37 0,0
12.07.2019 16:00:00 28,6 12,1 29,8 21,8 18,7 18 10 38 20 WNW 1013,7 39 32 0,0
12.07.2019 15:00:00 27,7 11,3 29,7 21,8 18,7 13 7 38 20 NNW 1013,9 51 22 0,0
12.07.2019 14:00:00 27,4 9,7 30,4 21,9 18,7 11 6 30 16 WNW 1014,4 43 22 0,0
12.07.2019 13:00:00 26,7 9,1 30,1 21,9 18,7 8 4 24 13 N 1014,8 49 39 0,0
12.07.2019 12:00:00 26,9 8,8 32,9 21,9 18,7 6 3 20 11 N 1015,0 31 60 0,0
12.07.2019 11:00:00 25,0 8,5 26,5 21,9 18,7 5 3 17 9 WSW 1015,3 39 25 0,0
12.07.2019 10:00:00 22,8 10,2 23,5 22,0 18,7 2 1 11 6 W 1015,8 30 0 0,0
12.07.2019 09:00:00 21,3 11,0 20,9 22,0 18,7 5 3 12 6 N 1016,1 17 3 0,0
12.07.2019 08:00:00 20,2 12,7 19,8 22,1 18,7 6 3 9 5 SE 1015,4 17 8 0,0
12.07.2019 07:00:00 20,1 11,6 17,2 22,1 18,7 4 2 11 6 ESE 1015,5 19 26 0,0
12.07.2019 06:00:00 20,0 10,1 13,3 22,1 18,7 6 3 11 6 E 1015,1 31 0 0,0
12.07.2019 05:00:00 16,7 11,2 12,8 22,1 18,7 3 1 10 5 SSW 1015,3 51 0 0,0
12.07.2019 04:00:00 16,9 10,7 13,2 22,1 18,7 2 1 9 5 ESE 1015,2 56 0 0,0
12.07.2019 03:00:00 18,3 11,1 15,0 22,1 18,7 6 4 11 6 NNE 1014,8 55 0 0,0
12.07.2019 02:00:00 20,0 10,4 16,9 22,1 18,7 4 2 12 7 E 1014,7 60 0 0,0
12.07.2019 01:00:00 20,4 9,6 16,5 22,1 18,7 4 2 8 5 E 1014,7 60 0 0,0
12.07.2019 00:00:00 23,3 8,2 18,5 22,1 18,7 8 5 13 7 ESE 1014,5 60 0 0,0
11.07.2019 23:00:00 23,6 9,2 21,3 22,1 18,7 10 5 21 12 W 1014,2 60 0 0,0
11.07.2019 22:00:00 24,2 10,5 22,6 22,1 18,7 15 8 29 15 W 1013,7 16 3 0,0
11.07.2019 21:00:00 25,4 10,0 24,9 22,1 18,7 16 8 27 15 W 1013,4 60 36 0,0
11.07.2019 20:00:00 27,0 9,4 27,1 22,0 18,7 18 10 29 15 W 1013,2 32 45 0,0
11.07.2019 19:00:00 27,4 8,3 28,9 22,0 18,7 10 6 23 12 WNW 1012,9 54 18 0,0
11.07.2019 18:00:00 27,2 8,6 29,1 22,1 18,7 6 4 21 12 ENE 1013,0 55 0 0,0
11.07.2019 17:00:00 27,4 8,8 30,5 22,1 18,7 10 6 19 11 NNE 1012,9 52 28 0,0
11.07.2019 16:00:00 27,2 9,5 31,8 22,1 18,7 6 3 15 8 E 1013,1 22 27 0,0
11.07.2019 15:00:00 25,9 7,0 28,3 22,2 18,7 9 5 16 8 E 1012,9 37 4 0,0
11.07.2019 14:00:00 24,4 8,4 25,6 22,2 18,7 5 3 17 9 NNW 1014,1 20 2 0,0
11.07.2019 13:00:00 23,1 9,1 24,1 22,2 18,7 4 2 9 5 ENE 1014,6 18 0 0,0
11.07.2019 12:00:00 22,2 9,0 21,5 22,3 18,7 4 2 14 8 ENE 1014,7 28 0 0,0
11.07.2019 11:00:00 19,8 10,8 20,8 22,3 18,7 12 6 18 10 SW 1015,4 48 0 0,0
11.07.2019 10:00:00 19,1 9,6 18,9 22,4 18,6 9 5 16 9 S 1014,9 34 7 0,0

tt = Température de l'air
td = dewpoint
tt 5cm = Température de l'air 5cm
tt -20cm = Température de l'air -20cm
tt -100cm = Température de l'air -100cm
ff = Vitesse du vent
fx = gusts
dd = Direction du vent
ppp = reduced air pressure
vv = visibility
sd = Ensoleillement
rr = Quantités de précipitations

stations d'obs. à proximité